START_TIME,STEP,MOV.,M34,t_acc.,L5,t_acc.,L18,t_acc.,L14,t_acc.
1981-08-28 21:00:25.380 ,2,0,0.,12.0,0.,12.0,0.,12.0,0.,12.0
1981-08-28 21:00:37.380 ,2,0,0.,12.0,0.,12.0,0.,12.0,0.,12.0
1981-08-28 21:00:49.380 ,1,1,0.,12.0,0.,12.0,0.,12.0,0.,12.0
1981-08-28 21:01:01.380 ,1,1,0.,12.0,0.,12.0,0.,12.0,0.,12.0
1981-08-28 21:01:13.380 ,1,0,0.,12.0,0.,12.0,0.,12.0,0.,12.0
1981-08-28 21:01:25.380 ,1,0,0.,12.0,0.,12.0,0.,12.0,0.,12.0
1981-08-28 21:01:37.380 ,0,1,0.,12.0,0.,12.0,0.,12.0,0.,12.0
1981-08-28 21:01:49.380 ,0,1,0.,12.0,0.,12.0,0.,12.0,0.,12.0
1981-08-28 21:02:01.380 ,0,0,0.,12.0,0.,12.0,0.,12.0,0.,12.0
1981-08-28 21:02:13.380 ,0,0,0.,12.0,0.,12.0,0.,12.0,0.,12.0
1981-08-28 21:02:25.380 ,0,1,0.,12.0,0.,12.0,0.,12.0,0.,12.0
1981-08-28 21:02:37.380 ,0,1,0.,12.0,0.,12.0,0.,12.0,0.,12.0
1981-08-28 21:02:49.380 ,0,0,0.,12.0,0.,12.0,0.,12.0,0.,12.0
1981-08-28 21:03:01.380 ,0,0,0.,12.0,0.,12.0,0.,12.0,0.,12.0
1981-08-28 21:03:13.380 ,1,1,0.,12.0,0.,12.0,0.,12.0,0.,12.0
1981-08-28 21:03:25.380 ,1,1,0.,12.0,0.,12.0,0.,12.0,0.,12.0
1981-08-28 21:03:37.380 ,1,0,0.,12.0,0.,12.0,0.,12.0,0.,12.0
1981-08-28 21:03:49.380 ,1,0,0.,12.0,0.,12.0,0.,12.0,0.,12.0
1981-08-28 21:04:01.380 ,2,1,0.,12.0,0.,12.0,0.,12.0,0.,12.0
1981-08-28 21:04:13.380 ,2,1,0.,12.0,0.,12.0,0.,12.0,0.,12.0
1981-08-28 21:04:25.380 ,2,0,0.,12.0,0.,12.0,0.,12.0,0.,12.0
1981-08-28 21:04:37.380 ,2,0,0.,12.0,0.,12.0,0.,12.0,0.,12.0
1981-08-28 21:04:49.380 ,3,1,0.,12.0,0.,12.0,0.,12.0,0.,12.0
1981-08-28 21:05:01.380 ,3,1,0.,12.0,0.,12.0,0.,12.0,0.,12.0
1981-08-28 21:05:13.380 ,3,0,0.,12.0,0.,12.0,0.,12.0,0.,12.0
1981-08-28 21:05:25.380 ,3,0,0.,12.0,0.,12.0,0.,12.0,0.,12.0
1981-08-28 21:05:37.380 ,4,1,0.,12.0,0.,12.0,0.,12.0,0.,12.0
1981-08-28 21:05:49.380 ,4,1,0.,12.0,0.,12.0,0.,12.0,0.,12.0
1981-08-28 21:06:01.380 ,4,0,0.,12.0,0.,12.0,0.,12.0,0.,12.0
1981-08-28 21:06:13.380 ,4,0,0.,12.0,0.,12.0,0.,12.0,0.,12.0
1981-08-28 21:06:25.380 ,5,1,0.,12.0,0.,12.0,0.,12.0,0.,12.0
1981-08-28 21:06:37.380 ,5,1,0.,12.0,0.,12.0,0.,12.0,0.,12.0
1981-08-28 21:06:49.380 ,5,0,0.,12.0,0.,12.0,0.,12.0,0.,12.0
1981-08-28 21:07:01.380 ,5,0,0.,12.0,0.,12.0,0.,12.0,0.,12.0
1981-08-28 21:07:13.380 ,6,1,0.,12.0,0.,12.0,0.,12.0,0.,12.0
1981-08-28 21:07:25.380 ,6,1,0.,12.0,0.,12.0,0.,12.0,0.,12.0
1981-08-28 21:07:37.380 ,6,0,0.,12.0,0.,12.0,0.,12.0,0.,12.0
1981-08-28 21:07:49.380 ,6,0,0.,12.0,0.,12.0,0.,12.0,0.,12.0
1981-08-28 21:08:01.380 ,7,1,0.,12.0,0.,12.0,0.,12.0,0.,12.0
1981-08-28 21:08:13.380 ,7,1,0.,12.0,0.,12.0,0.,12.0,0.,12.0
1981-08-28 21:08:25.380 ,7,0,0.,12.0,0.,12.0,0.,12.0,0.,12.0
1981-08-28 21:08:37.380 ,7,0,0.,12.0,0.,12.0,0.,12.0,0.,12.0
1981-08-28 21:08:49.380 ,7,1,0.,12.0,0.,12.0,0.,12.0,0.,12.0
1981-08-28 21:09:01.380 ,7,1,0.,12.0,0.,12.0,0.,12.0,0.,12.0
1981-08-28 21:09:13.380 ,6,1,0.,12.0,0.,12.0,0.,12.0,0.,12.0
1981-08-28 21:09:25.380 ,6,1,0.,12.0,0.,12.0,0.,12.0,0.,12.0
1981-08-28 21:09:37.380 ,5,1,0.,12.0,0.,12.0,0.,12.0,0.,12.0
1981-08-28 21:09:49.380 ,5,1,0.,12.0,0.,12.0,0.,12.0,0.,12.0
1981-08-28 21:10:01.380 ,4,1,0.,12.0,0.,12.0,0.,12.0,0.,12.0
1981-08-28 21:10:13.380 ,4,1,0.,12.0,0.,12.0,0.,12.0,0.,12.0
1981-08-28 21:10:25.380 ,3,1,0.,12.0,0.,12.0,0.,12.0,0.,12.0
1981-08-28 21:10:37.380 ,3,1,0.,12.0,0.,12.0,0.,12.0,0.,12.0
1981-08-28 21:10:49.380 ,2,1,0.,12.0,0.,12.0,0.,12.0,0.,12.0
1981-08-28 21:11:01.380 ,2,1,0.,12.0,0.,12.0,0.,12.0,0.,12.0
1981-08-28 21:11:13.380 ,1,1,0.,12.0,0.,12.0,0.,12.0,0.,12.0
1981-08-28 21:11:25.380 ,1,1,0.,12.0,0.,12.0,0.,12.0,0.,12.0
1981-08-28 21:11:37.380 ,0,1,0.,12.0,0.,12.0,0.,12.0,0.,12.0
1981-08-28 21:11:49.380 ,0,1,0.,12.0,0.,12.0,0.,12.0,0.,12.0
1981-08-28 21:12:01.380 ,0,1,0.,12.0,0.,12.0,0.,12.0,0.,12.0
1981-08-28 21:12:13.380 ,0,1,0.,12.0,0.,12.0,0.,12.0,0.,12.0
1981-08-28 21:12:25.380 ,1,1,0.,12.0,0.,12.0,0.,12.0,0.,12.0
1981-08-28 21:12:37.380 ,1,1,0.,12.0,0.,12.0,0.,12.0,0.,12.0
1981-08-28 21:12:49.380 ,2,1,0.,12.0,0.,12.0,0.,12.0,0.,12.0
1981-08-28 21:13:01.380 ,2,1,0.,12.0,0.,12.0,0.,12.0,0.,12.0
1981-08-28 21:13:13.380 ,3,1,0.,12.0,0.,12.0,0.,12.0,0.,12.0
1981-08-28 21:13:25.380 ,3,1,0.,12.0,0.,12.0,0.,12.0,0.,12.0
1981-08-28 21:13:37.380 ,4,1,0.,12.0,0.,12.0,0.,12.0,0.,12.0
1981-08-28 21:13:49.380 ,4,1,0.,12.0,0.,12.0,0.,12.0,0.,12.0
1981-08-28 21:14:01.380 ,5,1,0.,12.0,0.,12.0,0.,12.0,0.,12.0
1981-08-28 21:14:13.380 ,5,1,0.,12.0,0.,12.0,0.,12.0,0.,12.0
1981-08-28 21:14:25.380 ,6,1,0.,12.0,0.,12.0,0.,12.0,0.,12.0
1981-08-28 21:14:37.380 ,6,1,0.,12.0,0.,12.0,0.,12.0,0.,12.0
1981-08-28 21:14:49.380 ,7,1,0.,12.0,0.,12.0,0.,12.0,0.,12.0
1981-08-28 21:15:01.380 ,7,1,0.,12.0,0.,12.0,0.,12.0,0.,12.0
1981-08-28 21:15:13.380 ,7,1,0.,12.0,0.,12.0,0.,12.0,0.,12.0
1981-08-28 21:15:25.380 ,7,1,0.,12.0,0.,12.0,0.,12.0,0.,12.0
1981-08-28 21:15:37.380 ,7,0,0.,12.0,0.,12.0,0.,12.0,0.,12.0
1981-08-28 21:15:49.380 ,7,0,0.,12.0,0.,12.0,0.,12.0,0.,12.0
1981-08-28 21:16:01.380 ,6,1,0.,12.0,0.,12.0,0.,12.0,0.,12.0
1981-08-28 21:16:13.380 ,6,1,0.,12.0,0.,12.0,0.,12.0,0.,12.0
1981-08-28 21:16:25.380 ,6,0,0.,12.0,0.,12.0,0.,12.0,0.,12.0
1981-08-28 21:16:37.380 ,6,0,0.,12.0,0.,12.0,0.,12.0,0.,12.0
1981-08-28 21:16:49.380 ,5,1,0.,12.0,0.,12.0,0.,12.0,0.,12.0
1981-08-28 21:17:01.380 ,5,1,0.,12.0,0.,12.0,0.,12.0,0.,12.0
1981-08-28 21:17:13.380 ,5,0,0.,12.0,0.,12.0,0.,12.0,0.,12.0
1981-08-28 21:17:25.380 ,5,0,0.,12.0,0.,12.0,0.,12.0,0.,12.0
1981-08-28 21:17:37.380 ,4,1,0.,12.0,0.,12.0,0.,12.0,0.,12.0
1981-08-28 21:17:49.380 ,4,1,0.,12.0,0.,12.0,0.,12.0,0.,12.0
1981-08-28 21:18:01.380 ,4,0,0.,12.0,0.,12.0,0.,12.0,0.,12.0
1981-08-28 21:18:13.380 ,4,0,0.,12.0,0.,12.0,0.,12.0,0.,12.0
1981-08-28 21:18:25.380 ,3,1,0.,12.0,0.,12.0,0.,12.0,0.,12.0
1981-08-28 21:18:37.380 ,3,1,0.,12.0,0.,12.0,0.,12.0,0.,12.0
1981-08-28 21:18:49.380 ,3,0,0.,12.0,0.,12.0,0.,12.0,0.,12.0
1981-08-28 21:19:01.380 ,3,0,0.,12.0,0.,12.0,0.,12.0,0.,12.0
1981-08-28 21:19:13.380 ,2,1,0.,12.0,0.,12.0,0.,12.0,0.,12.0
1981-08-28 21:19:25.380 ,2,1,0.,12.0,0.,12.0,0.,12.0,0.,12.0
1981-08-28 21:19:37.380 ,2,0,0.,12.0,0.,12.0,0.,12.0,0.,12.0
1981-08-28 21:19:49.380 ,2,0,0.,12.0,0.,12.0,0.,12.0,0.,12.0
1981-08-28 21:20:01.380 ,1,1,0.,12.0,0.,12.0,0.,12.0,0.,12.0
1981-08-28 21:20:13.380 ,1,1,0.,12.0,0.,12.0,0.,12.0,0.,12.0
1981-08-28 21:20:25.380 ,1,0,0.,12.0,0.,12.0,0.,12.0,0.,12.0
1981-08-28 21:20:37.380 ,1,0,0.,12.0,0.,12.0,0.,12.0,0.,12.0
1981-08-28 21:20:49.380 ,0,1,0.,12.0,0.,12.0,0.,12.0,0.,12.0
1981-08-28 21:21:01.380 ,0,1,0.,12.0,0.,12.0,0.,12.0,0.,12.0
1981-08-28 21:21:13.380 ,0,0,0.,12.0,0.,12.0,0.,12.0,0.,12.0
1981-08-28 21:21:25.380 ,0,0,0.,12.0,0.,12.0,0.,12.0,0.,12.0
1981-08-28 21:21:37.380 ,0,1,,0,,0,,0,,0
1981-08-28 21:21:49.380 ,0,1,0.,12.0,0.,12.0,0.,12.0,0.,12.0
1981-08-28 21:22:01.380 ,0,0,0.,12.0,0.,12.0,0.,12.0,0.,12.0
1981-08-28 21:22:13.380 ,0,0,0.,12.0,0.,12.0,0.,12.0,0.,12.0
1981-08-28 21:22:25.380 ,1,1,0.,12.0,0.,12.0,0.,12.0,0.,12.0
1981-08-28 21:22:37.380 ,1,1,0.,12.0,0.,12.0,0.,12.0,0.,12.0
1981-08-28 21:22:49.380 ,1,0,0.,12.0,0.,12.0,0.,12.0,0.,12.0
1981-08-28 21:23:01.380 ,1,0,0.,12.0,0.,12.0,0.,12.0,0.,12.0
1981-08-28 21:23:13.380 ,2,1,0.,12.0,0.,12.0,0.,12.0,0.,12.0
1981-08-28 21:23:25.380 ,2,1,0.,12.0,0.,12.0,0.,12.0,0.,12.0
1981-08-28 21:23:37.380 ,2,0,0.,12.0,0.,12.0,0.,12.0,0.,12.0
1981-08-28 21:23:49.380 ,2,0,0.,12.0,0.,12.0,0.,12.0,0.,12.0
1981-08-28 21:24:01.380 ,3,1,0.,12.0,0.,12.0,0.,12.0,0.,12.0
1981-08-28 21:24:13.380 ,3,1,0.,12.0,0.,12.0,0.,12.0,0.,12.0
1981-08-28 21:24:25.380 ,3,0,0.,12.0,0.,12.0,0.,12.0,0.,12.0
1981-08-28 21:24:37.380 ,3,0,0.,12.0,0.,12.0,0.,12.0,0.,12.0
1981-08-28 21:24:49.380 ,4,1,0.,12.0,0.,12.0,0.,12.0,0.,12.0
1981-08-28 21:25:01.380 ,4,1,0.,12.0,0.,12.0,0.,12.0,0.,12.0
1981-08-28 21:25:13.380 ,4,0,0.,12.0,0.,12.0,0.,12.0,0.,12.0
1981-08-28 21:25:25.380 ,4,0,0.,12.0,0.,12.0,0.,12.0,0.,12.0
1981-08-28 21:25:37.380 ,5,1,0.,12.0,0.,12.0,0.,12.0,0.,12.0
1981-08-28 21:25:49.380 ,5,1,0.,12.0,0.,12.0,0.,12.0,0.,12.0
1981-08-28 21:26:01.380 ,5,0,0.,12.0,0.,12.0,0.,12.0,0.,12.0
1981-08-28 21:26:13.380 ,5,0,0.,12.0,0.,12.0,0.,12.0,0.,12.0
1981-08-28 21:26:25.370 ,6,1,0.,12.0,0.,12.0,0.,12.0,0.,12.0
1981-08-28 21:26:37.370 ,6,1,0.,12.0,0.,12.0,0.,12.0,0.,12.0
1981-08-28 21:26:49.370 ,6,0,0.,12.0,0.,12.0,0.,12.0,0.,12.0
1981-08-28 21:27:01.370 ,6,0,0.,12.0,0.,12.0,0.,12.0,0.,12.0
1981-08-28 21:27:13.370 ,7,1,0.,12.0,0.,12.0,0.,12.0,0.,12.0
1981-08-28 21:27:25.370 ,7,1,0.,12.0,0.,12.0,0.,12.0,0.,12.0
1981-08-28 21:27:37.370 ,7,0,0.,12.0,0.,12.0,0.,12.0,0.,12.0
1981-08-28 21:27:49.370 ,7,0,0.,12.0,0.,12.0,0.,12.0,0.,12.0
1981-08-28 21:28:01.370 ,7,1,0.,12.0,0.,12.0,0.,12.0,0.,12.0
1981-08-28 21:28:13.370 ,7,1,0.,12.0,0.,12.0,0.,12.0,0.,12.0
1981-08-28 21:28:25.370 ,6,1,0.,12.0,0.,12.0,0.,12.0,0.,12.0
1981-08-28 21:28:37.370 ,6,1,0.,12.0,0.,12.0,0.,12.0,0.,12.0
1981-08-28 21:28:49.370 ,5,1,0.,12.0,0.,12.0,0.,12.0,0.,12.0
1981-08-28 21:29:01.370 ,5,1,0.,12.0,0.,12.0,0.,12.0,0.,12.0
1981-08-28 21:29:13.370 ,4,1,0.,12.0,0.,12.0,0.,12.0,0.,12.0
1981-08-28 21:29:25.370 ,4,1,0.,12.0,0.,12.0,0.,12.0,0.,12.0
1981-08-28 21:29:37.370 ,3,1,0.,12.0,0.,12.0,0.,12.0,0.,12.0
1981-08-28 21:29:49.370 ,3,1,0.,12.0,0.,12.0,0.,12.0,0.,12.0
1981-08-28 21:30:01.370 ,2,1,0.,12.0,0.,12.0,0.,12.0,0.,12.0
1981-08-28 21:30:13.370 ,2,1,0.,12.0,0.,12.0,0.,12.0,0.,12.0
1981-08-28 21:30:25.370 ,1,1,0.,12.0,0.,12.0,0.,12.0,0.,12.0
1981-08-28 21:30:37.370 ,1,1,0.,12.0,0.,12.0,0.,12.0,0.,12.0
1981-08-28 21:30:49.370 ,0,1,0.,12.0,0.,12.0,0.,12.0,0.,12.0
1981-08-28 21:31:01.370 ,0,1,0.,12.0,0.,12.0,0.,12.0,0.,12.0
1981-08-28 21:31:13.370 ,0,1,0.,12.0,0.,12.0,0.,12.0,0.,12.0
1981-08-28 21:31:25.370 ,0,1,0.,12.0,0.,12.0,0.,12.0,0.,12.0
1981-08-28 21:31:37.370 ,1,1,0.,12.0,0.,12.0,0.,12.0,0.,12.0
1981-08-28 21:31:49.370 ,1,1,0.,12.0,0.,12.0,0.,12.0,0.,12.0
1981-08-28 21:32:01.370 ,2,1,0.,12.0,0.,12.0,0.,12.0,0.,12.0
1981-08-28 21:32:13.370 ,2,1,0.,12.0,0.,12.0,0.,12.0,0.,12.0
1981-08-28 21:32:25.370 ,3,1,0.,12.0,0.,12.0,0.,12.0,0.,12.0
1981-08-28 21:32:37.370 ,3,1,0.,12.0,0.,12.0,0.,12.0,0.,12.0
1981-08-28 21:32:49.370 ,4,1,0.,12.0,0.,12.0,0.,12.0,0.,12.0
1981-08-28 21:33:01.370 ,4,1,0.,12.0,0.,12.0,0.,12.0,0.,12.0
1981-08-28 21:33:13.370 ,5,1,0.,12.0,0.,12.0,0.,12.0,0.,12.0
1981-08-28 21:33:25.370 ,5,1,0.,12.0,0.,12.0,0.,12.0,0.,12.0
1981-08-28 21:33:37.370 ,6,1,0.,12.0,0.,12.0,0.,12.0,0.,12.0
1981-08-28 21:33:49.370 ,6,1,0.,12.0,0.,12.0,0.,12.0,0.,12.0
1981-08-28 21:34:01.370 ,7,1,0.,12.0,0.,12.0,0.,12.0,0.,12.0
1981-08-28 21:34:13.370 ,7,1,0.,12.0,0.,12.0,0.,12.0,0.,12.0
1981-08-28 21:34:25.370 ,7,1,0.,12.0,0.,12.0,0.,12.0,0.,12.0
1981-08-28 21:34:37.370 ,7,1,0.,12.0,0.,12.0,0.,12.0,0.,12.0
1981-08-28 21:34:49.370 ,7,0,0.,12.0,0.,12.0,0.,12.0,0.,12.0
1981-08-28 21:35:01.370 ,7,0,0.,12.0,0.,12.0,0.,12.0,0.,12.0
1981-08-28 21:35:13.370 ,6,1,0.,12.0,0.,12.0,0.,12.0,0.,12.0
1981-08-28 21:35:25.370 ,6,1,0.,12.0,0.,12.0,0.,12.0,0.,12.0
1981-08-28 21:35:37.370 ,6,0,0.,12.0,0.,12.0,0.,12.0,0.,12.0
1981-08-28 21:35:49.370 ,6,0,0.,12.0,0.,12.0,0.,12.0,0.,12.0
1981-08-28 21:36:01.370 ,5,1,0.,12.0,0.,12.0,0.,12.0,0.,12.0
1981-08-28 21:36:13.370 ,5,1,0.,12.0,0.,12.0,0.,12.0,0.,12.0
1981-08-28 21:36:25.370 ,5,0,0.,12.0,0.,12.0,0.,12.0,0.,12.0
1981-08-28 21:36:37.370 ,5,0,0.,12.0,0.,12.0,0.,12.0,0.,12.0
1981-08-28 21:36:49.370 ,4,1,0.,12.0,0.,12.0,0.,12.0,0.,12.0
1981-08-28 21:37:01.370 ,4,1,0.,12.0,0.,12.0,0.,12.0,0.,12.0
1981-08-28 21:37:13.370 ,4,0,0.,12.0,0.,12.0,0.,12.0,0.,12.0
1981-08-28 21:37:25.370 ,4,0,0.,12.0,0.,12.0,0.,12.0,0.,12.0
1981-08-28 21:37:37.370 ,3,1,0.,12.0,0.,12.0,0.,12.0,0.,12.0
1981-08-28 21:37:49.370 ,3,1,0.,12.0,0.,12.0,0.,12.0,0.,12.0
1981-08-28 21:38:01.370 ,3,0,0.,12.0,0.,12.0,0.,12.0,0.,12.0
1981-08-28 21:38:13.370 ,3,0,0.,12.0,0.,12.0,0.,12.0,0.,12.0
1981-08-28 21:38:25.370 ,2,1,0.,12.0,0.,12.0,0.,12.0,0.,12.0
1981-08-28 21:38:37.370 ,2,1,0.,12.0,0.,12.0,0.,12.0,0.,12.0
1981-08-28 21:38:49.370 ,2,0,0.,12.0,0.,12.0,0.,12.0,0.,12.0
1981-08-28 21:39:01.370 ,2,0,0.,12.0,0.,12.0,0.,12.0,0.,12.0
1981-08-28 21:39:13.370 ,1,1,0.,12.0,0.,12.0,0.,12.0,0.,12.0
1981-08-28 21:39:25.370 ,1,1,0.,12.0,0.,12.0,0.,12.0,0.,12.0
1981-08-28 21:39:37.370 ,1,0,0.,12.0,0.,12.0,0.,12.0,0.,12.0
1981-08-28 21:39:49.370 ,1,0,0.,12.0,0.,12.0,0.,12.0,0.,12.0
1981-08-28 21:40:01.370 ,0,1,0.,12.0,0.,12.0,0.,12.0,0.,12.0
1981-08-28 21:40:13.370 ,0,1,0.,12.0,0.,12.0,0.,12.0,0.,12.0
1981-08-28 21:40:25.370 ,0,0,0.,12.0,0.,12.0,0.,12.0,0.,12.0
1981-08-28 21:40:37.370 ,0,0,0.,12.0,0.,12.0,0.,12.0,0.,12.0
1981-08-28 21:40:49.370 ,0,1,0.,12.0,0.,12.0,0.,12.0,0.,12.0
1981-08-28 21:41:01.370 ,0,1,0.,12.0,0.,12.0,0.,12.0,0.,12.0
1981-08-28 21:41:13.370 ,0,0,0.,12.0,0.,12.0,0.,12.0,0.,12.0
1981-08-28 21:41:25.370 ,0,0,0.,12.0,0.,12.0,0.,12.0,0.,12.0
1981-08-28 21:41:37.370 ,1,1,0.,12.0,0.,12.0,0.,12.0,0.,12.0
1981-08-28 21:41:49.370 ,1,1,0.,12.0,0.,12.0,0.,12.0,0.,12.0
1981-08-28 21:42:01.370 ,1,0,0.,12.0,0.,12.0,0.,12.0,0.,12.0
1981-08-28 21:42:13.370 ,1,0,0.,12.0,0.,12.0,0.,12.0,0.,12.0
1981-08-28 21:42:25.370 ,2,1,0.,12.0,0.,12.0,0.,12.0,0.,12.0
1981-08-28 21:42:37.370 ,2,1,0.,12.0,0.,12.0,0.,12.0,0.,12.0
1981-08-28 21:42:49.370 ,2,0,0.,12.0,0.,12.0,0.,12.0,0.,12.0
1981-08-28 21:43:01.370 ,2,0,0.,12.0,0.,12.0,0.,12.0,0.,12.0
1981-08-28 21:43:13.370 ,3,1,0.,12.0,0.,12.0,0.,12.0,0.,12.0
1981-08-28 21:43:25.370 ,3,1,0.,12.0,0.,12.0,0.,12.0,0.,12.0
1981-08-28 21:43:37.370 ,3,0,0.,12.0,0.,12.0,0.,12.0,0.,12.0
1981-08-28 21:43:49.370 ,3,0,0.,12.0,0.,12.0,0.,12.0,0.,12.0
1981-08-28 21:44:01.370 ,4,1,0.,12.0,0.,12.0,0.,12.0,0.,12.0
1981-08-28 21:44:13.370 ,4,1,0.,12.0,0.,12.0,0.,12.0,0.,12.0
1981-08-28 21:44:25.370 ,4,0,0.,12.0,0.,12.0,0.,12.0,0.,12.0
1981-08-28 21:44:37.370 ,4,0,0.,12.0,0.,12.0,0.,12.0,0.,12.0
1981-08-28 21:44:49.370 ,5,1,0.,12.0,0.,12.0,0.,12.0,0.,12.0
1981-08-28 21:45:01.370 ,5,1,0.,12.0,0.,12.0,0.,12.0,0.,12.0
1981-08-28 21:45:13.370 ,5,0,0.,12.0,0.,12.0,0.,12.0,0.,12.0
1981-08-28 21:45:25.370 ,5,0,0.,12.0,0.,12.0,0.,12.0,0.,12.0
1981-08-28 21:45:37.370 ,6,1,0.,12.0,0.,12.0,0.,12.0,0.,12.0
1981-08-28 21:45:49.370 ,6,1,0.,12.0,0.,12.0,0.,12.0,0.,12.0
1981-08-28 21:46:01.370 ,6,0,0.,12.0,0.,12.0,0.,12.0,0.,12.0
1981-08-28 21:46:13.370 ,6,0,0.,12.0,0.,12.0,0.,12.0,0.,12.0
1981-08-28 21:46:25.370 ,7,1,0.,12.0,0.,12.0,0.,12.0,0.,12.0
1981-08-28 21:46:37.370 ,7,1,0.,12.0,0.,12.0,0.,12.0,0.,12.0
1981-08-28 21:46:49.370 ,7,0,0.,12.0,0.,12.0,0.,12.0,0.,12.0
1981-08-28 21:47:01.370 ,7,0,0.,12.0,0.,12.0,0.,12.0,0.,12.0
1981-08-28 21:47:13.370 ,7,1,0.,12.0,0.,12.0,0.,12.0,0.,12.0
1981-08-28 21:47:25.370 ,7,1,0.,12.0,0.,12.0,0.,12.0,0.,12.0
1981-08-28 21:47:37.370 ,6,1,0.,12.0,0.,12.0,0.,12.0,0.,12.0
1981-08-28 21:47:49.370 ,6,1,0.,12.0,0.,12.0,0.,12.0,0.,12.0
1981-08-28 21:48:01.370 ,5,1,0.,12.0,0.,12.0,0.,12.0,0.,12.0
1981-08-28 21:48:13.370 ,5,1,0.,12.0,0.,12.0,0.,12.0,0.,12.0
1981-08-28 21:48:25.370 ,4,1,0.,12.0,0.,12.0,0.,12.0,0.,12.0
1981-08-28 21:48:37.370 ,4,1,0.,12.0,0.,12.0,0.,12.0,0.,12.0
1981-08-28 21:49:37.370 ,0,0,0.,12.0,0.,12.0,0.,12.0,0.,12.0
1981-08-28 21:49:49.370 ,0,0,0.,12.0,0.,12.0,0.,12.0,0.,12.0
1981-08-28 21:50:01.370 ,0,1,0.,12.0,0.,12.0,0.,12.0,0.,12.0
1981-08-28 21:50:13.370 ,0,1,0.,12.0,0.,12.0,0.,12.0,0.,12.0
1981-08-28 21:50:25.370 ,0,1,0.,12.0,0.,12.0,0.,12.0,0.,12.0
1981-08-28 21:50:37.370 ,0,1,0.,12.0,0.,12.0,0.,12.0,0.,12.0
1981-08-28 21:50:49.370 ,1,1,0.,12.0,0.,12.0,0.,12.0,0.,12.0
1981-08-28 21:51:01.370 ,1,1,0.,12.0,0.,12.0,0.,12.0,0.,12.0
1981-08-28 21:51:13.370 ,2,1,0.,12.0,0.,12.0,0.,12.0,0.,12.0
1981-08-28 21:51:25.370 ,2,1,0.,12.0,0.,12.0,0.,12.0,0.,12.0
1981-08-28 21:51:37.370 ,3,1,0.,12.0,0.,12.0,0.,12.0,0.,12.0
1981-08-28 21:51:49.370 ,3,1,0.,12.0,0.,12.0,0.,12.0,0.,12.0
1981-08-28 21:52:01.370 ,4,1,0.,12.0,0.,12.0,0.,12.0,0.,12.0
1981-08-28 21:52:13.370 ,4,1,0.,12.0,0.,12.0,0.,12.0,0.,12.0
1981-08-28 21:52:25.370 ,5,1,0.,12.0,0.,12.0,0.,12.0,0.,12.0
1981-08-28 21:52:37.370 ,5,1,0.,12.0,0.,12.0,0.,12.0,0.,12.0
1981-08-28 21:52:49.370 ,6,1,0.,12.0,0.,12.0,0.,12.0,0.,12.0
1981-08-28 21:53:01.370 ,6,1,0.,12.0,0.,12.0,0.,12.0,0.,12.0
1981-08-28 21:53:13.370 ,7,1,0.,12.0,0.,12.0,0.,12.0,0.,12.0
1981-08-28 21:53:25.370 ,7,1,0.,12.0,0.,12.0,0.,12.0,0.,12.0
1981-08-28 21:53:37.370 ,7,1,0.,12.0,0.,12.0,0.,12.0,0.,12.0
1981-08-28 21:53:49.370 ,7,1,0.,12.0,0.,12.0,0.,12.0,0.,12.0
1981-08-28 21:54:01.370 ,7,0,0.,12.0,0.,12.0,0.,12.0,0.,12.0
1981-08-28 21:54:13.370 ,7,0,0.,12.0,0.,12.0,0.,12.0,0.,12.0
1981-08-28 21:54:25.370 ,6,1,0.,12.0,0.,12.0,0.,12.0,0.,12.0
1981-08-28 21:54:37.370 ,6,1,0.,12.0,0.,12.0,0.,12.0,0.,12.0
1981-08-28 21:54:49.370 ,6,0,0.,12.0,0.,12.0,0.,12.0,0.,12.0
1981-08-28 21:55:01.370 ,6,0,0.,12.0,0.,12.0,0.,12.0,0.,12.0
1981-08-28 21:55:13.370 ,5,1,0.,12.0,0.,12.0,0.,12.0,0.,12.0
1981-08-28 21:55:25.370 ,5,1,0.,12.0,0.,12.0,0.,12.0,0.,12.0
1981-08-28 21:55:37.370 ,5,0,0.,12.0,0.,12.0,0.,12.0,0.,12.0
1981-08-28 21:55:49.370 ,5,0,0.,12.0,0.,12.0,0.,12.0,0.,12.0
1981-08-28 21:56:01.370 ,4,1,0.,12.0,0.,12.0,0.,12.0,0.,12.0
1981-08-28 21:56:13.370 ,4,1,0.,12.0,0.,12.0,0.,12.0,0.,12.0
1981-08-28 21:56:25.370 ,4,0,0.,12.0,0.,12.0,0.,12.0,0.,12.0
1981-08-28 21:56:37.370 ,4,0,0.,12.0,0.,12.0,0.,12.0,0.,12.0
1981-08-28 21:56:49.370 ,3,1,0.,12.0,0.,12.0,0.,12.0,0.,12.0
1981-08-28 21:57:01.370 ,3,1,0.,12.0,0.,12.0,0.,12.0,0.,12.0
1981-08-28 21:57:13.370 ,3,0,0.,12.0,0.,12.0,0.,12.0,0.,12.0
1981-08-28 21:57:25.370 ,3,0,0.,12.0,0.,12.0,0.,12.0,0.,12.0
1981-08-28 21:57:37.370 ,2,1,0.,12.0,0.,12.0,0.,12.0,0.,12.0
1981-08-28 21:57:49.370 ,2,1,0.,12.0,0.,12.0,0.,12.0,0.,12.0
1981-08-28 21:58:01.370 ,2,0,0.,12.0,0.,12.0,0.,12.0,0.,12.0
1981-08-28 21:58:13.370 ,2,0,0.,12.0,0.,12.0,0.,12.0,0.,12.0
1981-08-28 21:58:25.370 ,1,1,0.,12.0,0.,12.0,0.,12.0,0.,12.0
1981-08-28 21:58:37.370 ,1,1,0.,12.0,0.,12.0,0.,12.0,0.,12.0
1981-08-28 21:58:49.370 ,1,0,0.,12.0,0.,12.0,0.,12.0,0.,12.0
1981-08-28 21:59:01.370 ,1,0,0.,12.0,0.,12.0,0.,12.0,0.,12.0
1981-08-28 21:59:13.370 ,0,1,0.,12.0,0.,12.0,0.,12.0,0.,12.0
1981-08-28 21:59:25.370 ,0,1,0.,12.0,0.,12.0,0.,12.0,0.,12.0
1981-08-28 21:59:37.370 ,0,0,0.,12.0,0.,12.0,0.,12.0,0.,12.0
1981-08-28 21:59:49.370 ,0,0,0.,12.0,0.,12.0,0.,12.0,0.,12.0
1981-08-28 22:00:01.370 ,0,1,0.,12.0,0.,12.0,0.,12.0,0.,12.0
1981-08-28 22:00:13.370 ,0,1,0.,12.0,0.,12.0,0.,12.0,0.,12.0
1981-08-28 22:00:25.370 ,0,0,0.,12.0,0.,12.0,0.,12.0,0.,12.0
1981-08-28 22:00:37.370 ,0,0,0.,12.0,0.,12.0,0.,12.0,0.,12.0
1981-08-28 22:00:49.370 ,1,1,0.,12.0,0.,12.0,0.,12.0,0.,12.0
1981-08-28 22:01:01.370 ,1,1,0.,12.0,0.,12.0,0.,12.0,0.,12.0
1981-08-28 22:01:13.370 ,1,0,0.,12.0,0.,12.0,0.,12.0,0.,12.0
1981-08-28 22:01:25.370 ,1,0,0.,12.0,0.,12.0,0.,12.0,0.,12.0
1981-08-28 22:01:37.370 ,2,1,0.,12.0,0.,12.0,0.,12.0,0.,12.0
1981-08-28 22:01:49.370 ,2,1,0.,12.0,0.,12.0,0.,12.0,0.,12.0
1981-08-28 22:02:01.370 ,2,0,0.,12.0,0.,12.0,0.,12.0,0.,12.0
1981-08-28 22:02:13.370 ,2,0,0.,12.0,0.,12.0,0.,12.0,0.,12.0
1981-08-28 22:02:25.370 ,3,1,0.,12.0,0.,12.0,0.,12.0,0.,12.0
1981-08-28 22:02:37.370 ,3,1,0.,12.0,0.,12.0,0.,12.0,0.,12.0
1981-08-28 22:02:49.370 ,3,0,0.,12.0,0.,12.0,0.,12.0,0.,12.0
1981-08-28 22:03:01.370 ,3,0,0.,12.0,0.,12.0,0.,12.0,0.,12.0
1981-08-28 22:03:13.370 ,4,1,0.,12.0,0.,12.0,0.,12.0,0.,12.0
1981-08-28 22:03:25.370 ,4,1,0.,12.0,0.,12.0,0.,12.0,0.,12.0
1981-08-28 22:03:37.370 ,4,0,0.,12.0,0.,12.0,0.,12.0,0.,12.0
1981-08-28 22:03:49.370 ,4,0,0.,12.0,0.,12.0,0.,12.0,0.,12.0
1981-08-28 22:04:01.370 ,5,1,0.,12.0,0.,12.0,0.,12.0,0.,12.0
1981-08-28 22:04:13.370 ,5,1,0.,12.0,0.,12.0,0.,12.0,0.,12.0
1981-08-28 22:04:25.370 ,5,0,0.,12.0,0.,12.0,0.,12.0,0.,12.0
1981-08-28 22:04:37.370 ,5,0,0.,12.0,0.,12.0,0.,12.0,0.,12.0
1981-08-28 22:04:49.370 ,6,1,0.,12.0,0.,12.0,0.,12.0,0.,12.0
1981-08-28 22:05:01.370 ,6,1,0.,12.0,0.,12.0,0.,12.0,0.,12.0
1981-08-28 22:05:13.370 ,6,0,0.,12.0,0.,12.0,0.,12.0,0.,12.0
1981-08-28 22:05:25.370 ,6,0,0.,12.0,0.,12.0,0.,12.0,0.,12.0
1981-08-28 22:05:37.370 ,7,1,0.,12.0,0.,12.0,0.,12.0,0.,12.0
1981-08-28 22:05:49.370 ,7,1,0.,12.0,0.,12.0,0.,12.0,0.,12.0
1981-08-28 22:06:01.370 ,7,0,0.,12.0,0.,12.0,0.,12.0,0.,12.0
1981-08-28 22:06:13.370 ,7,0,0.,12.0,0.,12.0,0.,12.0,0.,12.0
1981-08-28 22:06:25.370 ,7,1,0.,12.0,0.,12.0,0.,12.0,0.,12.0
1981-08-28 22:06:37.370 ,7,1,0.,12.0,0.,12.0,0.,12.0,0.,12.0
1981-08-28 22:06:49.370 ,6,1,0.,12.0,0.,12.0,0.,12.0,0.,12.0
1981-08-28 22:07:01.370 ,6,1,0.,12.0,0.,12.0,0.,12.0,0.,12.0
1981-08-28 22:07:13.370 ,5,1,0.,12.0,0.,12.0,0.,12.0,0.,12.0
1981-08-28 22:07:25.370 ,5,1,0.,12.0,0.,12.0,0.,12.0,0.,12.0
1981-08-28 22:07:37.370 ,4,1,0.,12.0,0.,12.0,0.,12.0,0.,12.0
1981-08-28 22:07:49.370 ,4,1,0.,12.0,0.,12.0,0.,12.0,0.,12.0
1981-08-28 22:08:01.370 ,3,1,0.,12.0,0.,12.0,0.,12.0,0.,12.0
1981-08-28 22:08:13.370 ,3,1,0.,12.0,0.,12.0,0.,12.0,0.,12.0
1981-08-28 22:08:25.370 ,2,1,0.,12.0,0.,12.0,0.,12.0,0.,12.0
1981-08-28 22:08:37.370 ,2,1,0.,12.0,0.,12.0,0.,12.0,0.,12.0
1981-08-28 22:09:37.370 ,0,0,0.,12.0,0.,12.0,0.,12.0,0.,12.0
1981-08-28 22:09:49.370 ,0,0,0.,12.0,0.,12.0,0.,12.0,0.,12.0
1981-08-28 22:10:01.370 ,1,1,0.,12.0,0.,12.0,0.,12.0,0.,12.0
1981-08-28 22:10:13.370 ,1,1,0.,12.0,0.,12.0,0.,12.0,0.,12.0
1981-08-28 22:10:25.370 ,2,1,0.,12.0,0.,12.0,0.,12.0,0.,12.0
1981-08-28 22:10:37.370 ,2,1,0.,12.0,0.,12.0,0.,12.0,0.,12.0
1981-08-28 22:10:49.370 ,3,1,0.,12.0,0.,12.0,0.,12.0,0.,12.0
1981-08-28 22:11:01.370 ,3,1,0.,12.0,0.,12.0,0.,12.0,0.,12.0
1981-08-28 22:11:13.370 ,4,1,0.,12.0,0.,12.0,0.,12.0,0.,12.0
1981-08-28 22:11:25.370 ,4,1,0.,12.0,0.,12.0,0.,12.0,0.,12.0
1981-08-28 22:11:37.370 ,5,1,0.,12.0,0.,12.0,0.,12.0,0.,12.0
1981-08-28 22:11:49.370 ,5,1,0.,12.0,0.,12.0,0.,12.0,0.,12.0
1981-08-28 22:12:01.370 ,6,1,0.,12.0,0.,12.0,0.,12.0,0.,12.0
1981-08-28 22:12:13.370 ,6,1,0.,12.0,0.,12.0,0.,12.0,0.,12.0
1981-08-28 22:12:25.370 ,7,1,0.,12.0,0.,12.0,0.,12.0,0.,12.0
1981-08-28 22:12:37.370 ,7,1,0.,12.0,0.,12.0,0.,12.0,0.,12.0
1981-08-28 22:12:49.370 ,7,1,0.,12.0,0.,12.0,0.,12.0,0.,12.0
1981-08-28 22:13:01.370 ,7,1,0.,12.0,0.,12.0,0.,12.0,0.,12.0
1981-08-28 22:13:13.370 ,7,0,0.,12.0,0.,12.0,0.,12.0,0.,12.0
1981-08-28 22:13:25.370 ,7,0,0.,12.0,0.,12.0,0.,12.0,0.,12.0
1981-08-28 22:13:37.370 ,6,1,0.,12.0,0.,12.0,0.,12.0,0.,12.0
1981-08-28 22:13:49.370 ,6,1,0.,12.0,0.,12.0,0.,12.0,0.,12.0
1981-08-28 22:14:01.370 ,6,0,0.,12.0,0.,12.0,0.,12.0,0.,12.0
1981-08-28 22:14:13.370 ,6,0,0.,12.0,0.,12.0,0.,12.0,0.,12.0
1981-08-28 22:14:25.370 ,5,1,0.,12.0,0.,12.0,0.,12.0,0.,12.0
1981-08-28 22:14:37.370 ,5,1,0.,12.0,0.,12.0,0.,12.0,0.,12.0
1981-08-28 22:14:49.370 ,5,0,0.,12.0,0.,12.0,0.,12.0,0.,12.0
1981-08-28 22:15:01.370 ,5,0,0.,12.0,0.,12.0,0.,12.0,0.,12.0
1981-08-28 22:15:13.370 ,4,1,0.,12.0,0.,12.0,0.,12.0,0.,12.0
1981-08-28 22:15:25.370 ,4,1,0.,12.0,0.,12.0,0.,12.0,0.,12.0
1981-08-28 22:15:37.370 ,4,0,0.,12.0,0.,12.0,0.,12.0,0.,12.0
1981-08-28 22:15:49.370 ,4,0,0.,12.0,0.,12.0,0.,12.0,0.,12.0
1981-08-28 22:16:01.370 ,3,1,0.,12.0,0.,12.0,0.,12.0,0.,12.0
1981-08-28 22:16:13.370 ,3,1,0.,12.0,0.,12.0,0.,12.0,0.,12.0
1981-08-28 22:16:25.370 ,3,0,0.,12.0,0.,12.0,0.,12.0,0.,12.0
1981-08-28 22:16:37.370 ,3,0,0.,12.0,0.,12.0,0.,12.0,0.,12.0
1981-08-28 22:16:49.370 ,2,1,0.,12.0,0.,12.0,0.,12.0,0.,12.0
1981-08-28 22:17:01.370 ,2,1,0.,12.0,0.,12.0,0.,12.0,0.,12.0
1981-08-28 22:17:13.370 ,2,0,0.,12.0,0.,12.0,0.,12.0,0.,12.0
1981-08-28 22:17:25.370 ,2,0,0.,12.0,0.,12.0,0.,12.0,0.,12.0
1981-08-28 22:17:37.370 ,1,1,0.,12.0,0.,12.0,0.,12.0,0.,12.0
1981-08-28 22:17:49.370 ,1,1,0.,12.0,0.,12.0,0.,12.0,0.,12.0
1981-08-28 22:18:01.370 ,1,0,0.,12.0,0.,12.0,0.,12.0,0.,12.0
1981-08-28 22:18:13.370 ,1,0,0.,12.0,0.,12.0,0.,12.0,0.,12.0
1981-08-28 22:18:25.370 ,0,1,0.,12.0,0.,12.0,0.,12.0,0.,12.0
1981-08-28 22:18:37.370 ,0,1,0.,12.0,0.,12.0,0.,12.0,0.,12.0
1981-08-28 22:18:49.370 ,0,0,0.,12.0,0.,12.0,0.,12.0,0.,12.0
1981-08-28 22:19:01.370 ,0,0,0.,12.0,0.,12.0,0.,12.0,0.,12.0